Find Starlink 38324

NORAD ID: 100455 Int'l Des: 2026-193 Owner: SPXS Country: US Constellation: starlink operational

Aktuelle Ansicht

3D-Globus wird geladen...

About Starlink 38324

Starlink 38324 (NORAD 100455) is a starlink constellation satellite launched Aug 22, 2026 by SPXS of US. with a mass of 575.00 kg.

Nächste Überflüge

Passes for default location (London). Set your location on the main map for personalized predictions.

Höhenverlauf

Loading altitude history...

Zweizeiliger Elementsatz

1 A0455U 26193Y 26254.62320145 .00038715 00000-0 64948-3 0 9995
2 A0455 69.9989 99.1899 0004113 264.5068 95.5650 15.51617142 3872
Epoch: 11. Sept. 2026 • Age: 7 hours

Aktueller Status

Höhe 429.0 km
Apogäum / Perigäum N/A
Geschwindigkeit 7.65 km/s
Subsatellitenpunkt -51.99°S, 17.43°W
Startdatum 22. Aug. 2026
Alter 20 days
Typ internet

Technische Details

Klassifizierung Payload
Masse 575.00 kg
Trockenmasse 530.00 kg
Gesamtmasse 575.00 kg
Länge 0.30 m
Durchmesser 4.10 m
Spannweite 29.00 m
Form Box + pan
Hersteller SPXS
Bus-Typ Starlink V2MO
Phasenstatus In Orbit
Besitzer/Staat SPXS/US

Most Searched